Regional Weather Roundup
Issued by NWS

Home | Current Version | Previous Version | Graphics & Text | Print | Product List | Glossary On
Versions: 1 2 3 4 5 6 7 8 9 10 11 12 13 14 15 16 17 18 19 20 21 22 23 24 25 26 27
000
ASUS45 KBOU 220707
RWRCO

WEATHER ROUNDUP FOR COLORADO
NATIONAL WEATHER SERVICE DENVER/BOULDER CO
1200 AM MST WED FEB 22 2017

NOTE: "FAIR" INDICATES FEW OR NO CLOUDS BELOW 12000 FEET WITH NO
SIGNIFICANT WEATHER AND/OR OBSTRUCTIONS TO VISIBILITY.

COZ001>005-013-030-031-220800-
...NORTHWEST COLORADO...

CITY           SKY/WX    TMP DP  RH WIND       PRES   REMARKS
CRAIG          CLOUDY    34  27  75 N18G28    29.99R WCI  23
HAYDEN         FAIR      39  25  56 NW14G29   29.97R
MEEKER         FAIR      47  29  49 SW12      29.99R
MOUNT WERNER   NOT AVBL
STEAMBOAT SPGS FAIR      44  25  48 SW13G20   29.96S
WALDEN         NOT AVBL
$$

COZ006>008-011-220800-
...WEST CENTRAL VALLEYS...

CITY           SKY/WX    TMP DP  RH WIND       PRES   REMARKS
GRAND JUNCTION FAIR      51  34  52 VRB3      30.00S
MONTROSE       FAIR      53  30  41 SW14G26   30.05F
EAGLE          FAIR      45  26  47 W13       30.01F
RIFLE          FAIR      50  32  50 SW10      29.98S
DELTA          FAIR      54  33  44 N5        30.05S
NUCLA          NOT AVBL
$$

COZ017>023-064>068-220800-
...SOUTHWEST COLORADO...

CITY           SKY/WX    TMP DP  RH WIND       PRES   REMARKS
DURANGO        MOCLDY    46  32  58 SW9       30.20F
CORTEZ         FAIR      48  38  68 SW17      30.17R
PAGOSA SPRINGS CLOUDY    43  29  59 SW7       30.25R
TELLURIDE      NOT AVBL
WOLF CREEK PAS HVY SNOW  25  25 100 S21G39    30.32F VSB 1/4 WCI  10
$$

COZ009-010-012-014-032>034-037-058>063-220800-
...CENTRAL COLORADO...

CITY           SKY/WX    TMP DP  RH WIND       PRES   REMARKS
ASPEN          FAIR      47  15  27 W15G21    30.04S
BUENA VISTA    NOT AVBL
COPPER MTN     FAIR      30  14  51 W18G31    30.13F WCI  18
BERTHOUD PASS  FAIR      23  12  63 W28G41    30.07S WCI   6
COTTONWOOD PAS MOCLDY    41  14  33 SW14G28   30.11F
GUNNISON       NOT AVBL
KREMMLING      FAIR      46  27  46 W14G23    30.01R
LEADVILLE      FAIR      34  12  40 SW18G25   30.07F WCI  23
MONARCH PASS   FAIR      25  19  80 SW29G37   30.29F WCI   8
SALIDA         FAIR      46  24  41 SW12      30.15F
SUNLIGHT       NOT AVBL
WILKERSON PASS FAIR      30  14  51 SW14G29   30.14F WCI  20
$$

COZ069>075-220800-
...SAN LUIS VALLEY/SANGRE DE CRISTO MOUNTAINS...

CITY           SKY/WX    TMP DP  RH WIND       PRES   REMARKS
ALAMOSA        FAIR      42  29  59 SW6       30.17F
LA VETA PASS   FAIR      34  21  60 N18G29    30.25F WCI  23
SAGUACHE       FAIR      45  23  42 W20G29    30.13F
$$

COZ035-036-038>040-220800-
...NORTHERN COLORADO FRONT RANGE...

CITY           SKY/WX    TMP DP  RH WIND       PRES   REMARKS
DENVER INTL AP FAIR      53  14  21 SW16      29.89R
DMNS CITY PARK   N/A     58  15  19 S9G16     29.90F
AURORA         MOCLDY    50  14  24 S16       29.92F
FRONT RANGE AP FAIR      55  16  21 SW22      29.90R
ERIE MUNI ARPT FAIR      51  14  22 S6        29.88S
BOULDER MUN AP FAIR      50  14  23 S3        29.88F
CENTENNIAL     FAIR      53  12  19 E6        29.94R
BROOMFIELD     FAIR      50  18  27 SW6       29.91S
FORT COLLINS   FAIR      57  19  22 SW15G22   29.86R
LONGMONT       FAIR      49  15  25 SW5       29.88F
$$

COZ041-046-047-076>085-087-088-220800-
...PIKES PEAK/PALMER DIVIDE AND SOUTHERN FOOTHILLS...

CITY           SKY/WX    TMP DP  RH WIND       PRES   REMARKS
COLO. SPRINGS  FAIR      52  14  22 W13       30.00F
A. F. ACADEMY  FAIR      54  11  17 SW18G26   29.99F
SCHRIEVER AFB  FAIR      50  15  24 SW17      29.99F
ELLICOTT       FAIR     N/A N/A N/A W13       29.98F
FALCON         NOT AVBL
FORT CARSON    FAIR      54  17  23 SW18      29.98F
LIMON          FAIR      46  12  25 NW9       29.92S
MONUMENT HILL  FAIR      46  12  25 SW23      29.98F
TRINIDAD       FAIR      50  17  27 W13       30.04F
$$

COZ042>045-048>051-090-091-220800-
...NORTHEAST COLORADO...

CITY           SKY/WX    TMP DP  RH WIND       PRES   REMARKS
GREELEY ARPT   FAIR      46  15  28 W7        29.85F
AKRON          FAIR      52  11  19 SW18      29.83F
BURLINGTON     FAIR      61  12  14 W25       29.89S
WRAY           NOT AVBL
STERLING       FAIR      34  19  55 S7        29.79F WCI  28
HOLYOKE        FAIR      43  19  39 SW10      29.78F
FORT MORGAN    NOT AVBL
$$

COZ086-089-092>099-220800-
...SOUTHEAST COLORADO...

CITY           SKY/WX    TMP DP  RH WIND       PRES   REMARKS
PUEBLO         FAIR      56  22  26 W14       29.96F
LA JUNTA       FAIR      54  22  28 SW15      29.95F
LAMAR          FAIR      46  16  30 VRB6      29.91F
SPRINGFIELD      N/A     49  10  20 W16       29.94F
$$




USA.gov is the U.S. government's official web portal to all federal, state and local government web resources and services.